Wetbulb
56.72 57.51 57.95 58.12 58.76 59.81 60.37 60.40 60.61 60.78 60.30 59.27 58.42 58.60 58.17 57.33 57.55 53.48 46.50 53.98 58.27 64.05 62.22 57.16 54.93 55.76 54.50 53.87 55.16 53.21 46.49 43.16 45.80 45.68 48.12 50.26 49.33 51.26 53.35 53.26 53.65 54.29 55.30 57.64 60.87
55.51 56.32 57.20 57.75 58.21 59.11 59.85 60.26 60.40 60.58 60.55 59.76 59.00 59.09 57.73 57.62 51.99 48.29 53.72 58.72 61.56 63.27 56.35 54.00 51.35 54.44 49.80 50.71 53.28 48.71 44.74 45.75 49.05 49.44 49.02 50.65 49.99 50.44 50.81 51.68 52.36 54.22 58.32 59.55 60.99
54.48 55.11 55.89 56.82 57.41 58.27 59.01 59.79 59.93 59.98 60.29 60.09 59.83 59.20 58.51 55.92 42.68 40.91 55.40 57.75 58.24 61.52 58.27 55.86 54.83 53.57 49.00 49.31 51.08 48.10 44.51 47.51 49.21 50.68 51.27 50.95 49.96 51.99 49.40 48.59 51.81 52.31 54.91 58.65 59.05
53.71 54.38 54.68 55.37 56.40 57.37 58.36 59.17 59.80 59.83 59.89 59.89 59.68 59.03 58.01 50.09 30.41 45.62 57.37 57.44 60.54 56.92 57.09 53.13 52.44 49.51 47.01 45.35 49.93 45.85 48.70 49.07 50.70 51.60 50.18 49.55 51.84 50.67 49.16 51.30 52.91 54.04 56.21 58.55 58.47
52.56 53.11 53.50 53.72 54.66 55.90 57.02 58.28 59.09 59.76 59.86 59.71 59.65 58.78 51.11 43.91 42.75 50.72 54.81 59.89 57.64 57.31 53.78 50.77 50.11 48.23 45.29 45.97 47.38 48.02 47.71 49.75 50.81 49.90 48.95 50.14 49.75 50.13 50.74 53.15 53.81 54.77 54.79 55.86 58.20
51.40 51.95 52.06 52.67 53.39 54.56 55.55 57.12 58.34 58.76 59.85 59.84 59.27 57.72 47.25 40.27 49.83 49.66 51.72 57.56 55.79 54.56 52.40 50.54 49.48 50.59 46.53 45.73 45.17 45.97 48.74 48.25 48.80 49.58 49.52 48.39 48.17 49.13 50.69 52.96 53.32 53.05 53.83 54.46 56.84
50.81 51.18 51.61 51.84 52.66 53.63 54.66 55.88 57.44 58.08 58.95 59.86 59.40 54.38 47.37 44.72 49.46 48.37 49.83 49.03 55.77 53.92 51.00 51.80 52.76 50.12 49.40 45.87 48.64 46.85 43.36 44.94 45.27 47.00 47.27 48.24 44.67 45.10 50.35 51.77 51.83 52.49 52.91 53.25 54.05
50.96 50.89 50.90 51.52 52.02 53.13 54.19 55.34 56.53 57.33 58.03 59.36 59.21 53.63 45.28 52.84 49.55 49.24 48.69 47.93 55.60 54.99 53.47 53.68 53.08 50.60 48.24 48.73 45.83 43.63 43.35 38.40 42.83 45.65 46.81 47.19 39.25 44.31 48.16 49.37 49.39 50.22 50.98 51.45 52.32
50.20 50.57 50.09 50.70 51.34 52.08 53.30 54.63 55.88 56.47 56.94 57.96 53.21 51.00 44.73 54.37 48.09 50.07 49.33 46.98 50.71 53.49 53.36 54.83 51.79 47.43 46.89 41.53 38.22 38.76 29.25 35.94 38.34 44.05 44.01 44.50 39.86 44.25 46.06 47.67 47.86 48.67 49.37 49.58 49.06
48.95 49.40 49.26 49.77 50.73 51.62 52.47 53.15 54.45 54.77 53.97 53.79 52.20 46.73 46.93 44.71 47.17 47.46 47.81 48.02 49.74 50.82 50.04 48.70 45.30 41.17 41.34 39.39 27.43 31.48 34.19 34.34 34.03 38.93 41.47 40.83 42.13 43.50 44.58 45.60 46.30 46.27 46.48 46.56 46.92
48.69 48.74 48.82 49.30 50.23 50.74 50.69 49.42 45.48 45.06 48.15 42.11 42.99 44.91 45.36 48.11 48.58 45.19 46.60 45.19 45.04 46.43 40.07 43.94 37.48 33.71 37.54 40.87 35.21 33.60 34.16 33.35 35.31 40.43 40.10 39.13 40.06 43.28 44.23 43.16 43.14 44.21 43.98 45.29 46.83
48.26 48.35 48.67 49.02 49.75 50.73 48.68 43.38 45.45 46.60 40.25 46.09 44.62 46.46 47.79 47.81 41.55 43.14 46.99 40.93 42.52 39.24 40.73 39.38 34.92 36.69 38.71 39.57 38.76 35.46 32.59 32.40 37.01 40.04 39.75 37.61 37.46 40.80 41.73 42.56 44.40 45.39 45.15 44.30 44.71
48.57 48.93 49.07 48.52 49.12 47.50 44.47 44.17 49.11 49.45 39.54 40.06 44.09 43.60 45.41 46.08 41.52 40.75 44.30 41.94 41.10 38.74 39.00 33.79 34.27 39.78 38.06 37.43 37.54 37.40 34.97 32.76 31.95 36.44 37.11 35.75 33.88 36.62 39.61 42.44 41.67 43.46 44.93 44.47 44.80
48.35 48.92 48.26 48.43 44.03 43.44 41.19 46.19 49.25 48.77 32.08 35.21 39.52 42.01 45.85 45.69 40.63 45.12 44.69 44.38 41.16 37.69 39.22 37.03 37.52 37.01 35.44 35.64 38.03 32.89 39.10 36.19 35.14 33.02 26.86 33.79 24.66 30.92 33.48 36.35 39.88 41.57 42.35 44.06 45.03
48.15 48.24 48.10 48.36 40.44 39.86 42.28 47.01 48.61 44.88 19.25 34.85 38.56 46.58 45.01 41.11 40.93 40.26 44.23 42.81 38.59 36.84 38.35 33.29 34.41 34.56 34.12 35.22 39.32 33.40 39.77 38.13 35.71 33.18 32.19 30.77 29.14 29.80 34.91 35.11 38.12 40.94 42.00 42.89 43.98
47.51 47.85 47.65 44.33 42.68 43.05 45.34 46.48 44.59 27.78 19.33 32.45 39.34 38.77 38.27 39.91 39.99 40.01 40.68 43.63 41.76 37.53 38.39 34.82 37.81 36.31 35.68 37.68 40.37 38.72 36.48 35.67 34.97 34.88 26.90 29.55 29.72 29.94 32.61 35.63 37.93 41.97 42.84 43.07 43.92
47.40 47.47 45.94 44.42 38.51 45.55 46.73 41.73 26.75 20.42 32.89 29.91 33.73 37.57 35.85 35.77 37.02 37.81 36.45 35.35 34.73 30.84 31.32 33.86 33.73 36.01 38.39 35.23 37.50 37.40 32.38 21.90 24.45 25.55 22.47 29.28 28.55 32.00 33.97 35.96 38.69 40.32 41.89 41.73 42.75
47.39 47.56 46.03 44.30 45.15 46.16 43.35 32.46 19.74 22.93 28.36 35.31 35.48 35.89 32.51 34.97 35.65 36.16 34.65 32.23 37.77 32.32 29.23 28.41 26.12 34.14 37.81 36.09 33.81 35.96 33.81 23.04 15.11 17.62 22.31 28.99 25.73 31.41 37.32 40.72 41.44 40.44 40.68 41.79 40.46
46.11 43.39 41.10 42.73 44.97 44.49 34.44 23.00 23.00 21.96 30.15 32.91 34.09 30.92 31.43 34.69 33.69 34.53 33.21 32.94 36.32 35.50 28.39 28.85 28.16 34.45 37.62 39.28 38.25 34.14 31.88 34.10 27.40 25.93 21.92 25.63 29.16 36.20 37.81 38.32 39.60 39.90 38.91 40.18 38.53
40.81 40.49 40.02 43.82 44.88 39.55 28.08 25.05 27.92 32.98 34.94 32.71 28.66 32.44 28.26 31.53 31.65 32.36 31.85 36.01 35.20 37.79 32.97 30.49 25.10 31.75 35.48 39.41 38.91 35.46 37.83 30.18 30.59 18.38 15.55 23.83 25.81 28.99 32.18 35.35 36.75 37.75 38.17 38.17 36.86
38.97 33.46 38.48 44.82 41.02 31.53 23.05 24.75 27.30 32.62 34.21 33.65 28.36 29.50 31.67 31.70 32.25 31.52 31.86 33.83 36.92 37.02 36.17 30.65 28.03 27.61 34.74 34.05 33.11 34.83 33.07 32.55 31.22 28.15 21.01 18.70 24.08 32.92 35.56 36.94 37.29 36.80 38.01 36.44 35.42
35.14 25.25 39.78 43.14 28.80 28.95 25.02 28.21 32.46 32.35 32.59 32.53 33.06 32.73 30.92 32.63 32.17 31.31 29.86 33.23 38.83 38.61 33.76 31.89 28.13 25.16 29.42 31.55 36.80 37.58 34.15 33.83 27.49 25.50 28.55 26.27 25.24 33.63 35.08 36.68 37.20 36.47 35.14 34.63 33.70
31.32 30.04 41.00 40.25 23.92 24.55 28.16 28.98 29.88 29.39 29.90 31.56 31.93 34.79 33.87 32.86 30.33 33.17 31.70 36.65 38.15 37.37 35.59 34.85 29.60 23.83 26.55 28.55 29.93 31.60 33.78 35.15 32.69 28.25 26.94 25.12 27.27 34.96 35.14 34.75 36.07 34.44 33.33 32.75 32.30
31.00 22.31 30.81 34.75 25.75 23.28 25.03 23.02 26.91 32.34 31.27 31.98 31.22 32.17 33.35 32.57 34.49 32.48 33.04 33.64 36.32 38.23 41.22 38.99 30.77 28.70 23.50 26.21 29.75 29.62 31.80 33.65 32.80 28.35 28.04 27.84 30.14 30.33 32.10 33.45 33.40 32.25 31.33 31.37 31.13
32.29 19.37 21.14 15.58 26.68 13.70 23.35 24.42 25.83 26.31 29.89 32.87 30.14 30.17 31.16 28.27 31.07 30.95 33.46 32.97 35.89 39.25 38.96 36.39 29.68 30.74 30.70 27.16 29.45 30.33 31.35 31.95 30.78 32.11 27.64 30.23 29.32 34.16 32.51 32.58 32.59 31.11 30.32 29.10 27.84
30.57 25.15 29.21 17.62 18.42 25.07 23.81 23.32 25.74 26.85 27.80 27.11 27.26 29.50 30.32 26.88 29.05 30.56 31.60 32.59 32.12 35.39 35.28 36.51 29.61 30.74 28.05 29.17 29.03 27.29 30.18 32.15 32.42 32.95 32.43 31.54 28.75 36.95 32.68 31.75 29.95 30.55 29.22 26.70 26.14
36.49 31.25 26.92 23.92 15.10 20.60 22.81 22.88 25.24 27.73 28.98 30.58 29.95 29.60 28.12 29.78 32.24 32.68 33.71 34.91 34.71 33.58 32.53 33.22 31.44 28.82 24.58 28.45 28.23 24.50 29.45 30.04 31.82 34.19 33.66 29.49 34.57 32.97 29.78 33.57 30.44 28.90 27.21 24.88 23.67
MSLP
1019.21 1019.25 1019.13 1019.22 1019.32 1019.18 1019.24 1019.47 1019.65 1019.80 1020.12 1020.35 1020.42 1020.49 1020.64 1020.61 1020.50 1020.61 1020.29 1019.41 1019.24 1019.01 1018.89 1018.67 1018.40 1018.51 1018.38 1018.65 1018.67 1018.97 1019.77 1020.23 1019.70 1019.52 1018.75 1018.53 1018.54 1018.39 1018.29 1018.44 1018.50 1018.50 1018.67 1019.01 1019.37
1018.98 1018.98 1019.00 1019.01 1018.99 1018.96 1019.05 1019.13 1019.41 1019.56 1019.87 1020.18 1020.34 1020.44 1020.62 1020.67 1020.70 1020.45 1019.30 1018.92 1018.95 1019.16 1019.25 1019.28 1019.10 1018.93 1019.15 1019.21 1019.28 1019.46 1020.20 1019.92 1019.40 1019.07 1018.82 1018.67 1018.55 1018.43 1018.56 1018.52 1018.50 1018.56 1018.75 1019.17 1019.66
1018.78 1018.79 1018.87 1018.84 1018.78 1018.81 1018.83 1018.94 1019.08 1019.26 1019.58 1019.87 1020.16 1020.36 1020.58 1020.65 1020.57 1019.54 1019.02 1018.93 1018.95 1019.20 1019.46 1019.43 1019.33 1019.36 1019.61 1019.58 1019.68 1019.85 1019.99 1019.70 1019.37 1019.05 1018.83 1018.75 1018.64 1018.51 1018.58 1018.72 1018.42 1018.61 1018.86 1019.30 1019.76
1018.45 1018.55 1018.63 1018.69 1018.67 1018.65 1018.60 1018.65 1018.75 1018.96 1019.13 1019.47 1019.90 1020.21 1020.53 1020.90 1020.40 1019.02 1018.92 1018.56 1018.33 1019.02 1019.51 1019.49 1019.64 1019.85 1019.96 1019.92 1019.75 1020.11 1019.76 1019.40 1019.11 1019.04 1019.00 1018.92 1018.81 1018.77 1018.78 1018.32 1018.26 1018.43 1018.73 1019.19 1019.60
1018.25 1018.39 1018.35 1018.35 1018.51 1018.57 1018.48 1018.44 1018.58 1018.70 1018.87 1019.08 1019.48 1020.04 1020.70 1021.08 1020.00 1018.94 1018.82 1018.53 1018.64 1019.11 1019.49 1019.62 1019.77 1019.97 1020.12 1020.05 1020.05 1020.09 1019.93 1019.72 1019.22 1019.19 1019.21 1019.18 1019.08 1019.02 1018.77 1018.30 1018.33 1018.46 1018.64 1019.00 1019.32
1017.94 1018.08 1018.18 1018.17 1018.31 1018.44 1018.34 1018.29 1018.29 1018.44 1018.61 1018.84 1019.21 1019.80 1020.51 1020.69 1019.10 1019.01 1018.76 1018.55 1019.00 1019.28 1019.51 1019.67 1019.63 1019.69 1020.04 1020.17 1020.16 1019.89 1019.99 1019.96 1019.71 1019.59 1019.56 1019.56 1019.33 1019.38 1018.76 1018.30 1018.57 1018.69 1018.59 1018.71 1018.94
1017.46 1017.59 1017.88 1017.98 1018.10 1018.07 1018.17 1018.11 1018.14 1018.19 1018.32 1018.49 1018.85 1019.45 1019.68 1019.03 1018.71 1018.97 1018.80 1019.03 1019.08 1019.27 1019.58 1019.57 1019.51 1019.72 1020.01 1020.24 1020.10 1020.27 1020.62 1020.71 1020.34 1020.03 1019.87 1019.84 1019.41 1018.82 1018.72 1018.74 1018.76 1018.73 1018.68 1018.68 1018.65
1016.88 1017.19 1017.33 1017.67 1017.79 1017.92 1018.00 1017.94 1017.68 1017.89 1018.08 1018.21 1018.58 1019.20 1018.26 1018.04 1018.50 1018.83 1019.01 1019.19 1019.20 1019.35 1019.49 1019.62 1019.60 1019.88 1020.24 1020.34 1020.52 1020.85 1021.18 1021.41 1020.67 1020.39 1019.93 1020.01 1018.38 1018.38 1018.56 1019.00 1018.95 1018.99 1018.78 1018.63 1018.44
1016.39 1016.63 1016.83 1017.16 1017.37 1017.52 1017.66 1017.71 1017.54 1017.58 1017.80 1018.01 1018.71 1018.89 1017.80 1017.40 1018.30 1018.37 1019.15 1019.72 1019.63 1019.51 1019.57 1019.62 1019.76 1020.31 1020.68 1021.06 1021.62 1021.69 1021.63 1021.65 1021.14 1020.36 1020.32 1020.23 1018.62 1018.52 1018.42 1018.73 1018.72 1018.66 1018.63 1018.70 1018.42
1015.96 1016.28 1016.48 1016.76 1016.99 1017.12 1017.36 1017.49 1017.35 1017.35 1017.70 1018.17 1018.37 1019.10 1017.78 1017.33 1017.73 1018.19 1018.81 1019.40 1019.73 1019.69 1019.95 1020.03 1020.40 1020.72 1020.97 1021.26 1021.24 1021.77 1022.21 1021.63 1021.10 1020.60 1020.62 1020.48 1019.12 1019.00 1018.82 1018.95 1018.98 1018.75 1018.46 1018.46 1018.27
1015.44 1015.73 1016.03 1016.28 1016.58 1016.87 1017.23 1017.33 1017.96 1017.49 1017.06 1016.38 1016.49 1016.60 1016.77 1017.14 1017.33 1017.92 1018.39 1019.16 1019.70 1019.77 1019.99 1020.20 1020.67 1019.82 1020.51 1020.83 1021.22 1021.49 1021.72 1021.68 1021.30 1020.71 1020.76 1020.42 1019.68 1018.63 1018.78 1018.94 1018.80 1018.51 1018.43 1018.09 1017.63
1014.79 1015.09 1015.29 1015.75 1016.16 1016.46 1016.82 1016.71 1016.43 1016.29 1016.18 1016.25 1016.16 1016.43 1016.58 1016.64 1017.34 1017.94 1018.02 1018.74 1019.65 1019.68 1020.01 1020.44 1019.05 1020.34 1020.77 1021.16 1021.48 1021.74 1021.95 1021.97 1021.68 1021.05 1020.89 1020.44 1019.48 1018.33 1018.39 1017.99 1017.46 1017.34 1017.48 1017.37 1017.41
1013.86 1014.22 1014.67 1015.18 1015.81 1016.17 1016.13 1016.19 1016.07 1016.49 1016.43 1015.69 1015.63 1015.98 1016.10 1016.69 1016.84 1017.35 1017.49 1017.77 1018.34 1019.05 1019.04 1019.21 1019.23 1019.53 1020.45 1021.01 1021.44 1021.52 1021.58 1021.90 1021.75 1021.28 1020.80 1020.27 1018.01 1017.52 1016.34 1016.58 1016.77 1016.71 1016.55 1016.60 1016.40
1012.86 1013.25 1014.00 1014.67 1015.92 1015.69 1015.76 1015.98 1016.36 1016.81 1015.99 1014.55 1014.53 1014.01 1015.65 1016.07 1016.27 1016.36 1016.90 1016.87 1017.87 1018.18 1019.21 1019.57 1019.18 1019.46 1019.97 1020.11 1020.75 1021.17 1021.05 1021.71 1021.86 1021.99 1021.77 1020.89 1018.04 1016.90 1016.36 1016.41 1016.44 1016.26 1016.31 1015.96 1015.80
1011.79 1012.48 1013.18 1013.97 1014.61 1014.94 1015.17 1015.71 1016.31 1017.41 1014.37 1012.14 1012.92 1012.39 1014.11 1015.81 1015.51 1016.16 1016.38 1016.78 1016.74 1017.21 1018.60 1018.20 1018.74 1019.40 1019.79 1019.41 1020.37 1020.38 1020.42 1021.32 1021.90 1022.25 1022.31 1021.47 1021.18 1016.67 1016.53 1016.17 1016.14 1015.84 1015.73 1015.68 1015.84
1011.59 1011.87 1012.70 1013.53 1014.45 1014.36 1014.85 1015.56 1016.53 1015.20 1012.57 1011.72 1011.57 1012.10 1013.68 1014.79 1015.47 1015.89 1016.32 1016.87 1016.69 1017.41 1017.44 1017.85 1017.94 1018.33 1018.12 1019.07 1019.60 1020.25 1020.96 1021.60 1022.02 1022.42 1022.07 1020.48 1021.03 1015.06 1016.29 1015.69 1015.51 1015.23 1015.27 1015.49 1015.69
1011.21 1011.43 1012.09 1012.98 1013.20 1013.92 1014.59 1015.48 1014.83 1012.39 1012.54 1011.39 1010.77 1011.14 1011.89 1012.83 1014.35 1015.12 1015.98 1016.28 1016.03 1016.87 1017.38 1017.74 1017.87 1017.78 1017.81 1018.74 1019.33 1019.65 1020.52 1021.83 1022.26 1022.03 1020.68 1020.05 1020.42 1014.88 1015.28 1014.99 1014.87 1015.12 1015.01 1015.68 1015.99
1010.51 1010.93 1011.43 1012.28 1012.81 1013.53 1014.32 1013.77 1012.14 1011.61 1011.48 1010.90 1010.53 1011.31 1010.91 1011.81 1013.46 1014.17 1014.99 1015.68 1015.70 1015.47 1016.21 1016.93 1017.45 1017.06 1017.05 1017.16 1017.80 1018.67 1019.18 1019.78 1020.70 1020.80 1020.39 1020.46 1018.50 1014.70 1014.50 1014.33 1014.56 1014.85 1015.03 1015.74 1016.41
1010.37 1011.20 1011.75 1012.10 1012.59 1013.44 1014.13 1012.47 1011.56 1011.07 1010.87 1011.08 1010.96 1010.74 1010.90 1011.55 1012.12 1013.48 1013.53 1013.51 1014.17 1014.96 1015.18 1015.95 1016.02 1015.41 1015.92 1016.49 1016.73 1017.56 1017.78 1018.38 1019.63 1020.63 1020.34 1018.90 1017.09 1015.21 1014.44 1014.70 1014.63 1014.96 1015.63 1016.03 1016.87
1011.04 1011.51 1011.67 1011.93 1012.57 1013.51 1013.62 1012.62 1011.95 1011.37 1010.79 1010.61 1010.29 1009.77 1009.94 1010.73 1011.68 1012.37 1012.83 1012.66 1013.08 1013.72 1014.18 1014.72 1015.77 1015.39 1016.18 1016.16 1015.79 1015.79 1016.92 1018.20 1018.79 1019.39 1019.40 1018.05 1017.08 1014.96 1014.39 1014.29 1014.69 1015.47 1016.10 1016.89 1017.55
1011.33 1011.74 1011.59 1011.72 1012.78 1013.59 1012.98 1012.57 1012.23 1011.74 1011.34 1010.97 1010.19 1009.69 1009.12 1009.38 1010.27 1010.91 1011.25 1011.92 1012.24 1012.76 1013.68 1014.22 1014.50 1015.86 1015.52 1014.72 1014.48 1015.56 1015.90 1016.44 1016.92 1017.56 1017.25 1017.10 1015.34 1014.14 1013.93 1014.06 1014.49 1015.43 1016.25 1017.06 1017.92
1011.52 1011.90 1011.63 1011.65 1012.75 1012.67 1012.57 1012.40 1011.98 1011.63 1011.52 1011.48 1010.79 1009.55 1009.32 1009.42 1009.64 1010.21 1010.38 1009.79 1010.09 1010.77 1012.49 1013.08 1013.96 1015.16 1014.56 1014.14 1013.92 1013.73 1013.93 1014.91 1015.57 1016.06 1016.13 1015.90 1014.27 1013.36 1013.63 1013.94 1014.45 1015.69 1016.87 1017.83 1018.65
1011.19 1011.68 1011.47 1011.41 1011.96 1012.22 1012.43 1012.21 1011.89 1011.70 1011.77 1011.41 1010.77 1009.47 1008.72 1008.93 1009.42 1009.41 1009.73 1009.26 1009.50 1010.14 1010.29 1012.17 1012.97 1014.14 1014.78 1014.66 1014.21 1013.70 1013.81 1014.39 1014.83 1015.32 1015.28 1015.16 1013.78 1013.66 1014.12 1014.68 1015.18 1016.26 1017.66 1018.36 1019.14
1010.93 1012.06 1011.97 1011.56 1011.96 1012.04 1012.52 1012.27 1011.62 1011.11 1010.80 1011.15 1010.67 1009.31 1007.72 1008.73 1008.95 1009.38 1009.71 1009.40 1009.34 1009.61 1010.58 1011.14 1011.54 1011.88 1011.57 1011.22 1012.30 1013.30 1013.04 1013.46 1014.01 1014.53 1013.85 1013.82 1013.58 1013.77 1014.58 1015.23 1016.21 1017.33 1018.30 1019.14 1019.56
1010.35 1011.12 1011.29 1012.04 1011.81 1012.03 1012.00 1011.75 1011.57 1011.41 1011.37 1010.95 1010.77 1010.36 1008.48 1008.54 1009.06 1009.31 1009.49 1009.46 1009.59 1009.55 1010.29 1011.01 1010.80 1011.82 1011.54 1011.69 1011.48 1011.58 1012.06 1012.54 1013.27 1012.77 1013.00 1012.21 1013.37 1012.86 1014.26 1015.48 1016.30 1017.44 1018.80 1019.78 1020.52
1009.29 1010.21 1011.11 1011.56 1011.45 1012.06 1012.02 1011.62 1011.18 1010.80 1010.73 1010.24 1009.96 1009.86 1009.68 1008.76 1008.64 1008.85 1009.47 1009.62 1009.10 1009.92 1009.84 1010.55 1010.83 1011.36 1011.59 1011.74 1011.58 1011.72 1011.65 1011.93 1012.12 1011.57 1012.21 1012.35 1012.99 1012.27 1014.07 1015.57 1017.02 1017.94 1018.97 1019.96 1021.02
1008.22 1008.96 1009.50 1010.81 1011.70 1012.07 1011.19 1010.82 1010.76 1010.69 1009.91 1009.38 1009.43 1008.92 1008.80 1008.23 1008.37 1008.26 1008.69 1009.45 1009.73 1008.98 1009.38 1010.01 1010.66 1011.11 1010.84 1011.02 1011.77 1011.51 1010.88 1010.19 1010.76 1010.82 1010.89 1011.99 1010.96 1013.03 1014.78 1015.56 1017.03 1018.14 1019.16 1020.30 1021.52
Wind_Speed
12 14 14 13 13 12 12 14 13 12 10 8 6 4 4 5 5 3 5 8 4 8 8 7 4 5 4 3 3 2 4 2 3 5 2 2 3 0 1 4 1 3 1 2 5
12 13 13 14 13 12 12 13 14 12 12 10 8 5 2 2 1 5 9 12 10 3 4 4 4 4 3 1 3 4 3 7 3 3 3 1 2 3 2 1 2 2 1 4 7
14 13 13 13 14 14 13 12 12 12 13 11 9 5 2 1 2 5 3 3 15 5 2 1 1 0 1 0 3 3 6 4 3 4 3 2 1 1 4 2 6 5 2 3 4
14 15 11 11 13 13 14 13 11 13 14 12 10 8 5 2 5 3 10 12 4 7 2 3 2 4 4 5 3 4 4 5 2 4 3 2 1 2 5 5 2 4 2 4 7
14 14 12 10 11 13 13 14 12 11 12 14 12 11 5 2 9 4 9 7 6 7 7 5 5 5 6 4 4 4 5 5 3 3 1 1 4 4 5 6 3 2 2 4 6
13 14 12 10 10 12 13 14 14 12 11 13 14 13 6 5 5 4 5 3 5 4 6 5 6 5 4 3 6 2 4 1 2 3 3 4 6 6 7 7 7 5 7 6 6
13 12 12 12 12 12 14 14 15 13 12 13 15 8 7 14 5 3 5 1 2 5 5 3 3 3 4 1 3 2 3 1 3 3 4 4 10 9 9 4 7 7 7 7 7
14 13 11 12 11 12 13 14 13 13 13 13 15 8 8 11 7 1 1 5 3 4 3 4 2 4 3 1 3 4 3 3 3 8 5 8 17 4 7 7 10 9 9 7 8
13 11 12 12 12 11 11 12 12 12 13 12 8 7 6 8 9 9 5 5 3 3 2 3 3 3 2 6 2 2 4 5 5 8 4 7 11 5 2 7 9 8 8 7 8
15 15 13 14 13 12 11 10 8 7 4 3 6 6 7 5 6 7 5 7 3 6 4 4 3 4 4 7 9 7 5 5 6 3 3 5 20 4 1 5 8 8 8 8 8
18 17 15 14 12 13 9 1 2 5 7 7 8 7 7 6 4 5 6 8 2 4 7 7 4 15 12 13 3 6 5 5 3 3 4 9 15 16 8 6 10 12 10 13 14
20 20 18 14 15 15 8 7 3 3 7 16 14 19 5 4 4 3 11 9 7 11 7 5 21 6 7 6 7 3 3 4 4 5 6 6 14 16 9 10 14 16 13 13 10
23 21 18 17 16 12 11 16 5 8 4 6 19 9 5 6 9 13 17 7 13 13 23 11 2 16 11 9 12 11 14 4 3 2 2 5 14 11 9 16 7 10 12 9 14
24 23 21 18 12 7 10 8 5 6 5 8 14 11 7 5 6 5 9 9 7 17 19 11 5 9 2 14 14 14 8 7 3 4 5 2 14 5 3 4 5 8 8 13 13
21 22 23 22 4 8 5 8 7 3 13 12 11 8 14 9 13 12 7 4 14 11 10 8 10 13 10 8 13 6 9 13 6 5 3 4 5 4 1 4 4 6 8 7 7
14 19 21 12 5 5 8 8 7 12 10 8 15 17 24 16 8 5 11 2 2 4 8 7 3 10 12 7 17 8 7 5 3 5 9 9 10 14 8 8 5 5 5 5 5
14 16 18 8 11 11 5 9 11 15 7 8 15 21 29 22 25 14 12 15 9 9 12 4 8 2 6 7 4 8 8 3 5 7 11 9 8 24 3 1 7 7 8 5 5
14 17 15 8 6 9 7 8 17 17 7 3 11 21 29 22 16 13 23 20 21 5 8 14 8 12 6 8 8 16 13 8 10 7 4 6 13 13 6 14 12 7 8 8 7
2 2 2 4 8 8 7 11 7 5 13 9 10 18 19 22 10 15 18 29 24 19 10 13 11 2 6 8 15 10 19 7 4 2 3 6 8 9 8 7 6 7 6 8 7
3 2 1 10 9 6 4 8 5 3 0 15 14 16 18 24 15 22 18 20 20 22 1 7 2 5 7 6 12 8 11 10 10 7 7 5 5 11 2 8 6 7 7 7 7
3 2 2 11 6 2 5 5 1 1 2 5 20 12 17 15 20 18 14 10 23 26 13 8 4 1 11 17 18 8 10 9 5 8 8 6 9 8 12 12 8 9 9 10 10
3 1 3 9 4 2 3 4 4 5 2 3 5 21 13 12 21 19 15 20 32 28 26 11 6 6 16 3 12 20 17 15 8 10 10 2 7 1 5 6 7 7 10 10 11
4 2 1 4 4 2 1 4 2 3 6 1 6 11 4 17 13 18 13 18 25 27 23 16 7 5 3 0 1 14 12 13 6 2 9 11 12 3 4 5 8 14 9 11 11
3 3 2 3 1 7 5 2 2 3 1 5 6 7 9 9 8 13 13 2 13 28 18 21 7 17 15 13 9 11 21 20 19 13 18 14 18 6 6 9 8 8 8 8 9
3 6 6 5 6 2 4 6 9 5 2 4 3 6 7 5 5 7 7 4 7 23 19 11 12 17 20 3 5 9 19 26 21 26 19 25 15 22 10 11 12 11 10 10 8
6 5 3 2 2 10 7 7 11 9 9 6 10 6 7 4 8 8 4 5 5 12 20 7 4 11 16 9 7 4 12 16 25 29 21 14 8 17 6 9 8 12 12 11 9
3 1 6 3 3 6 9 9 8 5 7 5 7 3 6 10 8 9 6 7 6 14 14 10 9 8 17 17 12 9 19 20 18 23 26 20 32 7 5 18 15 12 10 12 10
Wind_Direction
297 290 281 279 276 277 250 229 218 213 218 233 232 244 292 334 348 360 248 224 211 350 349 329 14 352 7 42 27 123 66 151 213 159 235 145 176 96 278 131 208 199 203 44 116
293 297 287 279 275 274 267 241 231 215 209 217 227 219 262 324 307 242 243 247 263 312 355 26 356 353 14 17 7 85 113 209 209 191 180 214 195 175 160 97 254 282 153 83 137
277 288 299 289 277 273 267 247 230 220 213 206 209 193 179 347 335 244 314 297 262 262 210 309 263 255 182 171 197 168 175 204 231 237 182 181 227 151 133 229 223 213 185 138 161
287 277 284 304 297 282 270 261 234 220 212 205 199 170 143 0 228 157 354 336 305 171 186 174 144 146 155 189 186 146 230 177 206 186 164 208 152 223 186 216 248 165 145 159 182
288 286 277 287 301 297 289 267 250 231 217 206 193 154 113 86 258 319 343 5 72 130 170 163 149 142 174 193 148 189 203 201 244 171 176 62 249 234 244 237 212 234 226 218 222
269 281 288 278 282 290 292 278 254 247 227 213 194 145 119 202 233 354 339 57 104 112 151 154 186 184 163 205 176 213 193 258 289 239 223 196 250 141 259 271 249 232 255 257 228
258 270 269 276 273 279 282 281 261 246 236 222 202 165 195 206 156 82 41 352 147 171 151 197 142 152 143 156 218 140 153 29 256 235 250 161 281 214 210 197 239 248 243 239 250
261 251 258 263 266 266 275 271 261 248 242 229 212 194 240 196 145 285 73 355 7 156 134 145 110 117 153 246 34 141 127 150 246 176 250 121 258 166 194 207 243 239 254 256 256
259 260 259 267 259 261 267 283 272 253 241 232 219 211 242 145 162 230 134 217 328 119 126 129 79 161 120 116 46 337 192 187 285 211 150 185 268 246 197 198 241 254 251 254 272
256 255 256 262 257 247 256 269 280 250 244 323 239 211 172 171 164 154 154 146 186 133 118 147 131 174 166 164 207 186 210 219 195 213 209 214 255 238 202 165 222 252 268 269 254
259 252 242 255 260 246 247 181 203 213 205 200 196 224 134 136 96 158 156 123 126 171 171 188 175 211 189 199 149 165 176 186 214 230 184 231 249 251 240 235 240 243 241 253 263
250 254 238 240 248 239 225 203 267 23 214 224 254 215 169 194 113 153 142 137 173 190 143 185 231 169 174 193 207 171 178 220 271 230 187 253 254 264 216 228 230 240 240 240 245
263 244 242 237 238 243 223 227 238 19 250 200 217 220 185 162 185 192 176 150 177 177 192 194 235 166 169 180 198 219 223 168 201 327 248 304 269 225 241 234 229 243 247 250 240
250 234 231 219 240 224 232 213 208 72 244 194 186 211 177 149 203 145 201 149 181 195 193 230 201 168 147 202 184 220 190 168 162 67 245 21 281 252 274 219 208 238 232 245 254
227 228 222 203 176 186 189 157 165 116 238 179 164 166 142 193 134 207 181 224 178 164 156 207 166 177 204 200 182 217 153 180 155 183 12 214 297 258 207 275 235 252 244 247 254
233 231 216 212 202 233 160 160 153 218 226 169 151 170 168 181 196 110 178 270 155 119 221 166 169 182 196 157 178 142 87 67 136 157 246 214 198 262 214 196 215 222 246 256 251
246 218 204 182 212 185 158 174 211 220 155 178 176 170 181 185 209 186 174 203 171 156 202 185 221 215 146 126 136 158 138 143 207 207 233 156 179 250 274 111 181 204 240 273 100
259 212 213 193 149 162 193 217 221 208 194 240 170 188 186 174 193 185 183 192 220 198 165 195 214 188 188 178 171 190 184 163 193 205 200 142 227 240 208 222 240 235 262 161 129
235 92 187 158 147 143 222 222 227 174 168 172 180 190 198 194 169 173 196 194 193 188 169 193 228 218 179 167 157 189 211 171 82 48 80 216 285 295 196 223 219 219 174 159 135
101 138 222 149 137 146 229 224 272 163 74 205 206 192 188 194 185 191 196 196 193 195 156 195 157 191 178 144 218 170 159 186 214 200 227 245 258 240 210 240 230 188 177 153 118
78 181 229 134 88 169 202 212 161 1 77 219 223 232 206 179 189 187 192 195 196 193 194 161 136 278 144 205 186 161 191 205 172 199 198 231 243 202 226 226 208 189 175 140 122
125 182 264 139 169 175 187 175 195 164 108 303 281 237 192 197 190 193 199 195 193 189 194 188 139 163 202 308 210 208 201 189 192 202 232 223 255 250 273 218 181 151 122 115 109
156 160 213 155 209 150 276 149 235 182 148 152 282 221 198 185 204 207 201 218 194 192 193 173 196 154 133 103 281 210 219 206 212 74 196 204 237 101 81 120 130 131 130 125 119
120 145 270 188 180 142 148 169 260 256 102 164 294 303 138 171 211 186 210 203 183 199 193 174 185 213 212 211 132 195 209 209 208 226 232 223 242 222 190 169 137 124 125 127 122
173 220 186 204 195 98 138 184 182 218 219 183 231 220 280 124 141 191 219 153 178 200 192 191 209 206 232 182 173 195 201 209 208 221 215 234 222 244 188 185 168 147 134 132 115
159 150 161 138 167 168 180 209 199 199 176 219 206 206 208 143 203 153 133 171 153 206 191 196 219 180 234 249 211 210 208 203 212 223 226 244 233 246 147 121 150 164 153 142 131
135 55 111 205 97 146 210 190 209 152 259 209 197 204 231 237 186 151 144 173 263 183 196 192 194 190 221 208 216 232 216 208 212 220 212 216 232 140 191 176 174 162 150 139 133